Regional Weather Roundup
Issued by NWS

Home | Current Version | Previous Version | Text Only | Print | Product List | Glossary Off
Versions: 1 2 3 4 5 6 7 8 9 10 11 12 13 14 15 16 17 18 19 20 21 22 23 24 25 26 27 28 29 30 31 32 33 34 35 36 37 38 39 40 41 42 43 44 45 46 47 48 49 50

954
ASUS43 KLMK 261710
RWRKY
KENTUCKY REGIONAL WEATHER ROUNDUP
NATIONAL WEATHER SERVICE LOUISVILLE KY
100 PM EDT TUE JUL 26 2016

NOTE "FAIR" INDICATES FEW OR NO CLOUDS BELOW 12,000 FEET
WITH NO SIGNIFICANT WEATHER AND/OR OBSTRUCTIONS TO VISIBILITY.

KYZ001>023-026-027-061>063-070>075-261800-
WESTERN AND SOUTH CENTRAL KENTUCKY

CITY           SKY/WX    TMP DP  RH WIND       PRES   REMARKS
PADUCAH        PTSUNNY   89  75  63 VRB5      30.01S HX  99
HENDERSON      MOSUNNY   88  75  66 SE3       30.00F HX  97
OWENSBORO      CLOUDY    88  78  72 W7        30.03S HAZE    HX 101
HOPKINSVILLE   SUNNY     89  74  60 SW2       30.02F HX  98
BOWLING GREEN  MOSUNNY   91  73  55 SW7       30.02F HX  99
GLASGOW        PTSUNNY   91  74  57 W5        30.03F HX  99
$$

KYZ024-025-028>034-038-045-046-053-261800-
NORTH CENTRAL KENTUCKY

CITY           SKY/WX    TMP DP  RH WIND       PRES   REMARKS
LOUISVILLE/SDF PTSUNNY   90  72  55 SW8       30.01F HX  97
LOUISVILLE/LOU PTSUNNY   88  71  57 SW8       30.02F HX  94
FORT KNOX      MOSUNNY   87  75  67 W8        30.02F HX  95
$$

KYZ035>037-039>044-047>052-055>060-089>105-261800-
NORTHEAST KENTUCKY

CITY           SKY/WX    TMP DP  RH WIND       PRES   REMARKS
LEXINGTON      MOSUNNY   88  73  61 SW5       30.06S HX  95
COVINGTON      CLOUDY    82  72  69 NW17      30.04F THUNDER
FRANKFORT      MOSUNNY   88  73  61 W5        30.03F HX  95
$$

KYZ054-064>069-076>088-106>120-261800-
SOUTHEAST KENTUCKY

CITY           SKY/WX    TMP DP  RH WIND       PRES   REMARKS
JACKSON        MOSUNNY   87  73  62 CALM      30.09S HX  94
LONDON         MOSUNNY   88  69  53 W6        30.08S HX  92
SOMERSET       PTSUNNY   86  72  62 E3        30.07F HX  92
MIDDLESBORO    PTSUNNY   88  74  63 N3        30.08F HX  97
MONTICELLO     SUNNY    N/A N/A N/A VRB6      30.07F
$$





USA.gov is the U.S. government's official web portal to all federal, state and local government web resources and services.